Regional Weather Roundup
Issued by NWS

Home | Current Version | Previous Version | Graphics & Text | Print | Product List | Glossary Off
Versions: 1 2 3 4 5 6 7 8 9 10 11 12 13 14 15 16 17 18 19 20 21 22 23 24 25 26 27 28 29 30 31 32 33 34 35 36 37 38 39 40 41 42 43 44 45 46 47 48 49 50

000
ASUS43 KFSD 261710
RWRSD

WEATHER ROUNDUP FOR SOUTH DAKOTA
NATIONAL WEATHER SERVICE SIOUX FALLS SD
1200 PM CDT SUN APR 26 2015

NOTE: "FAIR" INDICATES FEW OR NO CLOUDS BELOW 12,000 FEET WITH NO
SIGNIFICANT WEATHER AND/OR OBSTRUCTIONS TO VISIBILITY.


SDZ001>005-009-010-012>017-261800-
NORTHWEST AND NORTH CENTRAL SOUTH DAKOTA

CITY           SKY/WX    TMP DP  RH WIND       PRES   REMARKS
BUFFALO          N/A     43  41  93 NE16      29.97R
FAITH            N/A     54  42  64 SE13      30.01R
MOBRIDGE       CLOUDY    57  34  41 S8        30.04R
$$

SDZ012>016-024>037-041>051-057-063-072>074-261800-
SOUTHWEST AND SOUTH CENTRAL SOUTH DAKOTA

CITY           SKY/WX    TMP DP  RH WIND       PRES   REMARKS
RAPID CTY ARPT CLOUDY    44  43  96 N10       30.00R FOG
PIERRE         PTSUNNY   58  43  57 E9        30.03R
CUSTER         LGT RAIN  41  39  93 E12       29.97R FOG
ELLSWORTH AFB  LGT RAIN  45  45 100 N7        30.00  FOG
PHILIP         CLOUDY    55  41  59 SE15G22   30.01R
PINE RIDGE     CLOUDY    47  42  83 SE14G20   29.98R
SPEARFISH      LGT RAIN  41  41 100 CALM      30.01R
WINNER         PTSUNNY   57  39  51 SE17G23   30.04R
$$

SDZ004>011-016>023-039-040-261800-
NORTHEAST SOUTH DAKOTA

CITY           SKY/WX    TMP DP  RH WIND       PRES   REMARKS
ABERDEEN       SUNNY     62  33  33 SE7G21    30.09R
WATERTOWN      SUNNY     59  35  40 VRB6      30.09S
BROOKINGS      SUNNY     57  36  44 E12       30.09S
SISSETON         N/A     58  32  37 MISG      30.11S
$$

SDZ017-020-022-023-036>040-048>070-261800-
SOUTHEAST SOUTH DAKOTA

CITY           SKY/WX    TMP DP  RH WIND       PRES   REMARKS
SIOUX FALLS    MOSUNNY   59  34  39 S7        30.08S
HURON          SUNNY     59  32  36 SE10G22   30.08R
CHAMBERLAIN    CLOUDY    53  40  60 SE7       30.07R
MITCHELL       SUNNY     58  36  43 SE10G23   30.08S
YANKTON        SUNNY     57  34  41 SE14      30.07S
$$

ABBREVIATIONS USED IN REMARKS
   TC - TEMPERATURE IN CELSIUS
  WCI - WIND CHILL INDEX
   HX - HEAT INDEX
  VSB - VISIBILITY



USA.gov is the U.S. government's official web portal to all federal, state and local government web resources and services.